Year,Month,Day,Hour,Minute,Value (Times are PST for temperature in C)
2009,06,12,00,00,12.70
2009,06,12,00,01,12.70
2009,06,12,00,02,12.70
2009,06,12,00,03,12.70
2009,06,12,00,04,12.70
2009,06,12,00,05,12.70
2009,06,12,00,06,12.70
2009,06,12,00,07,12.70
2009,06,12,00,08,12.60
2009,06,12,00,09,12.70
2009,06,12,00,10,12.70
2009,06,12,00,11,12.70
2009,06,12,00,12,12.70
2009,06,12,00,13,12.70
2009,06,12,00,14,12.70
2009,06,12,00,15,12.70
2009,06,12,00,16,12.70
2009,06,12,00,17,12.70
2009,06,12,00,18,12.70
2009,06,12,00,19,12.70
2009,06,12,00,20,12.70
2009,06,12,00,21,12.70
2009,06,12,00,22,12.60
2009,06,12,00,23,12.60
2009,06,12,00,24,12.60
2009,06,12,00,25,12.60
2009,06,12,00,26,12.60
2009,06,12,00,27,12.60
2009,06,12,00,28,12.60
2009,06,12,00,29,12.60
2009,06,12,00,30,12.60
2009,06,12,00,31,12.60
2009,06,12,00,32,12.60
2009,06,12,00,33,12.60
2009,06,12,00,34,12.60
2009,06,12,00,35,12.60
2009,06,12,00,36,12.60
2009,06,12,00,37,12.60
2009,06,12,00,38,12.60
2009,06,12,00,39,12.60
2009,06,12,00,40,12.60
2009,06,12,00,41,12.60
2009,06,12,00,42,12.60
2009,06,12,00,43,12.60
2009,06,12,00,44,12.60
2009,06,12,00,45,12.60
2009,06,12,00,46,12.60
2009,06,12,00,47,12.60
2009,06,12,00,48,12.60
2009,06,12,00,49,12.60
2009,06,12,00,50,12.60
2009,06,12,00,51,12.60
2009,06,12,00,52,12.60
2009,06,12,00,53,12.60
2009,06,12,00,54,12.60
2009,06,12,00,55,12.60
2009,06,12,00,56,12.60
2009,06,12,00,57,12.60
2009,06,12,00,58,12.60
2009,06,12,00,59,12.60
2009,06,12,01,00,12.60
2009,06,12,01,01,12.60
2009,06,12,01,02,12.60
2009,06,12,01,03,12.60
2009,06,12,01,04,12.60
2009,06,12,01,05,12.60
2009,06,12,01,06,12.60
2009,06,12,01,07,12.60
2009,06,12,01,08,12.60
2009,06,12,01,09,12.60
2009,06,12,01,10,12.60
2009,06,12,01,11,12.60
2009,06,12,01,12,12.60
2009,06,12,01,13,12.60
2009,06,12,01,14,12.60
2009,06,12,01,15,12.60
2009,06,12,01,16,12.60
2009,06,12,01,17,12.60
2009,06,12,01,18,12.60
2009,06,12,01,19,12.60
2009,06,12,01,20,12.60
2009,06,12,01,21,12.60
2009,06,12,01,22,12.60
2009,06,12,01,23,12.60
2009,06,12,01,24,12.60
2009,06,12,01,25,12.60
2009,06,12,01,26,12.70
2009,06,12,01,27,12.70
2009,06,12,01,28,12.70
2009,06,12,01,29,12.70
2009,06,12,01,30,12.70
2009,06,12,01,31,12.70
2009,06,12,01,32,12.70
2009,06,12,01,33,12.70
2009,06,12,01,34,12.70
2009,06,12,01,35,12.70
2009,06,12,01,36,12.70
2009,06,12,01,37,12.80
2009,06,12,01,38,12.80
2009,06,12,01,39,12.70
2009,06,12,01,40,12.70
2009,06,12,01,41,12.70
2009,06,12,01,42,12.70
2009,06,12,01,43,12.70
2009,06,12,01,44,12.70
2009,06,12,01,45,12.70
2009,06,12,01,46,12.80
2009,06,12,01,47,12.70
2009,06,12,01,48,12.70
2009,06,12,01,49,12.70
2009,06,12,01,50,12.70
2009,06,12,01,51,12.70
2009,06,12,01,52,12.70
2009,06,12,01,53,12.70
2009,06,12,01,54,12.70
2009,06,12,01,55,12.70
2009,06,12,01,56,12.70
2009,06,12,01,57,12.70
2009,06,12,01,58,12.70
2009,06,12,01,59,12.70
2009,06,12,02,00,12.70
2009,06,12,02,01,12.70
2009,06,12,02,02,12.70
2009,06,12,02,03,12.70
2009,06,12,02,04,12.70
2009,06,12,02,05,12.70
2009,06,12,02,06,12.60
2009,06,12,02,07,12.60
2009,06,12,02,08,12.70
2009,06,12,02,09,12.60
2009,06,12,02,10,12.60
2009,06,12,02,11,12.70
2009,06,12,02,12,12.60
2009,06,12,02,13,12.60
2009,06,12,02,14,12.60
2009,06,12,02,15,12.60
2009,06,12,02,16,12.60
2009,06,12,02,17,12.60
2009,06,12,02,18,12.60
2009,06,12,02,19,12.60
2009,06,12,02,20,12.60
2009,06,12,02,21,12.60
2009,06,12,02,22,12.50
2009,06,12,02,23,12.50
2009,06,12,02,24,12.50
2009,06,12,02,25,12.50
2009,06,12,02,26,12.50
2009,06,12,02,27,12.50
2009,06,12,02,28,12.50
2009,06,12,02,29,12.50
2009,06,12,02,30,12.40
2009,06,12,02,31,12.40
2009,06,12,02,32,12.40
2009,06,12,02,33,12.40
2009,06,12,02,34,12.40
2009,06,12,02,35,12.40
2009,06,12,02,36,12.40
2009,06,12,02,37,12.30
2009,06,12,02,38,12.30
2009,06,12,02,39,12.30
2009,06,12,02,40,12.40
2009,06,12,02,41,12.40
2009,06,12,02,42,12.30
2009,06,12,02,43,12.40
2009,06,12,02,44,12.30
2009,06,12,02,45,12.30
2009,06,12,02,46,12.30
2009,06,12,02,47,12.30
2009,06,12,02,48,12.30
2009,06,12,02,49,12.30
2009,06,12,02,50,12.30
2009,06,12,02,51,12.30
2009,06,12,02,52,12.30
2009,06,12,02,53,12.20
2009,06,12,02,54,12.20
2009,06,12,02,55,12.20
2009,06,12,02,56,12.20
2009,06,12,02,57,12.20
2009,06,12,02,58,12.20
2009,06,12,02,59,12.20
2009,06,12,03,00,12.20
2009,06,12,03,01,12.20
2009,06,12,03,02,12.20
2009,06,12,03,03,12.20
2009,06,12,03,04,12.20
2009,06,12,03,05,12.20
2009,06,12,03,06,12.20
2009,06,12,03,07,12.20
2009,06,12,03,08,12.20
2009,06,12,03,09,12.20
2009,06,12,03,10,12.20
2009,06,12,03,11,12.20
2009,06,12,03,12,12.20
2009,06,12,03,13,12.20
2009,06,12,03,14,12.20
2009,06,12,03,15,12.10
2009,06,12,03,16,12.20
2009,06,12,03,17,12.10
2009,06,12,03,18,12.10
2009,06,12,03,19,12.10
2009,06,12,03,20,12.20
2009,06,12,03,21,12.20
2009,06,12,03,22,12.20
2009,06,12,03,23,12.20
2009,06,12,03,24,12.20
2009,06,12,03,25,12.20
2009,06,12,03,26,12.20
2009,06,12,03,27,12.30
2009,06,12,03,28,12.30
2009,06,12,03,29,12.30
2009,06,12,03,30,12.30
2009,06,12,03,31,12.30
2009,06,12,03,32,12.30
2009,06,12,03,33,12.40
2009,06,12,03,34,12.40
2009,06,12,03,35,12.40
2009,06,12,03,36,12.40
2009,06,12,03,37,12.40
2009,06,12,03,38,12.40
2009,06,12,03,39,12.40
2009,06,12,03,40,12.40
2009,06,12,03,41,12.40
2009,06,12,03,42,12.40
2009,06,12,03,43,12.40
2009,06,12,03,44,12.40
2009,06,12,03,45,12.40
2009,06,12,03,46,12.40
2009,06,12,03,47,12.30
2009,06,12,03,48,12.30
2009,06,12,03,49,12.30
2009,06,12,03,50,12.30
2009,06,12,03,51,12.30
2009,06,12,03,52,12.30
2009,06,12,03,53,12.30
2009,06,12,03,54,12.30
2009,06,12,03,55,12.30
2009,06,12,03,56,12.40
2009,06,12,03,57,12.40
2009,06,12,03,58,12.40
2009,06,12,03,59,12.40
2009,06,12,04,00,12.40
2009,06,12,04,01,12.40
2009,06,12,04,02,12.40
2009,06,12,04,03,12.50
2009,06,12,04,04,12.50
2009,06,12,04,05,12.50
2009,06,12,04,06,12.50
2009,06,12,04,07,12.50
2009,06,12,04,08,12.50
2009,06,12,04,09,12.60
2009,06,12,04,10,12.60
2009,06,12,04,11,12.60
2009,06,12,04,12,12.60
2009,06,12,04,13,12.60
2009,06,12,04,14,12.60
2009,06,12,04,15,12.60
2009,06,12,04,16,12.60
2009,06,12,04,17,12.60
2009,06,12,04,18,12.60
2009,06,12,04,19,12.60
2009,06,12,04,20,12.70
2009,06,12,04,21,12.70
2009,06,12,04,22,12.70
2009,06,12,04,23,12.70
2009,06,12,04,24,12.70
2009,06,12,04,25,12.70
2009,06,12,04,26,12.70
2009,06,12,04,27,12.80
2009,06,12,04,28,12.80
2009,06,12,04,29,12.80
2009,06,12,04,30,12.80
2009,06,12,04,31,12.80
2009,06,12,04,32,12.80
2009,06,12,04,33,12.80
2009,06,12,04,34,12.80
2009,06,12,04,35,12.80
2009,06,12,04,36,12.80
2009,06,12,04,37,12.90
2009,06,12,04,38,12.80
2009,06,12,04,39,12.80
2009,06,12,04,40,12.80
2009,06,12,04,41,12.80
2009,06,12,04,42,12.80
2009,06,12,04,43,12.80
2009,06,12,04,44,12.80
2009,06,12,04,45,12.80
2009,06,12,04,46,12.80
2009,06,12,04,47,12.80
2009,06,12,04,48,12.80
2009,06,12,04,49,12.80
2009,06,12,04,50,12.90
2009,06,12,04,51,12.90
2009,06,12,04,52,12.90
2009,06,12,04,53,12.90
2009,06,12,04,54,12.90
2009,06,12,04,55,12.90
2009,06,12,04,56,12.90
2009,06,12,04,57,12.90
2009,06,12,04,58,12.90
2009,06,12,04,59,12.90
2009,06,12,05,00,12.90
2009,06,12,05,01,12.90
2009,06,12,05,02,12.90
2009,06,12,05,03,12.90
2009,06,12,05,04,12.90
2009,06,12,05,05,13.00
2009,06,12,05,06,13.00
2009,06,12,05,07,13.00
2009,06,12,05,08,13.00
2009,06,12,05,09,13.00
2009,06,12,05,10,13.00
2009,06,12,05,11,13.00
2009,06,12,05,12,13.00
2009,06,12,05,13,13.00
2009,06,12,05,14,13.10
2009,06,12,05,15,13.10
2009,06,12,05,16,13.10
2009,06,12,05,17,13.10
2009,06,12,05,18,13.10
2009,06,12,05,19,13.10
2009,06,12,05,20,13.10
2009,06,12,05,21,13.10
2009,06,12,05,22,13.10
2009,06,12,05,23,13.10
2009,06,12,05,24,13.10
2009,06,12,05,25,13.10
2009,06,12,05,26,13.10
2009,06,12,05,27,13.10
2009,06,12,05,28,13.10
2009,06,12,05,29,13.10
2009,06,12,05,30,13.10
2009,06,12,05,31,13.10
2009,06,12,05,32,13.10
2009,06,12,05,33,13.10
2009,06,12,05,34,13.10
2009,06,12,05,35,13.20
2009,06,12,05,36,13.20
2009,06,12,05,37,13.20
2009,06,12,05,38,13.20
2009,06,12,05,39,13.20
2009,06,12,05,40,13.20
2009,06,12,05,41,13.20
2009,06,12,05,42,13.20
2009,06,12,05,43,13.20
2009,06,12,05,44,13.20
2009,06,12,05,45,13.20
2009,06,12,05,46,13.20
2009,06,12,05,47,13.10
2009,06,12,05,48,13.10
2009,06,12,05,49,13.10
2009,06,12,05,50,13.10
2009,06,12,05,51,13.10
2009,06,12,05,52,13.10
2009,06,12,05,53,13.10
2009,06,12,05,54,13.10
2009,06,12,05,55,13.10
2009,06,12,05,56,13.10
2009,06,12,05,57,13.10
2009,06,12,05,58,13.10
2009,06,12,05,59,13.10
2009,06,12,06,00,13.10
2009,06,12,06,01,13.10
2009,06,12,06,02,13.00
2009,06,12,06,03,13.00
2009,06,12,06,04,13.00
2009,06,12,06,05,13.00
2009,06,12,06,06,13.00
2009,06,12,06,07,13.00
2009,06,12,06,08,13.00
2009,06,12,06,09,13.00
2009,06,12,06,10,13.00
2009,06,12,06,11,13.00
2009,06,12,06,12,13.00
2009,06,12,06,13,13.00
2009,06,12,06,14,13.00
2009,06,12,06,15,13.10
2009,06,12,06,16,13.10
2009,06,12,06,17,13.10
2009,06,12,06,18,13.10
2009,06,12,06,19,13.10
2009,06,12,06,20,13.10
2009,06,12,06,21,13.10
2009,06,12,06,22,13.10
2009,06,12,06,23,13.10
2009,06,12,06,24,13.10
2009,06,12,06,25,13.10
2009,06,12,06,26,13.10
2009,06,12,06,27,13.10
2009,06,12,06,28,13.10
2009,06,12,06,29,13.10
2009,06,12,06,30,13.20
2009,06,12,06,31,13.20
2009,06,12,06,32,13.20
2009,06,12,06,33,13.20
2009,06,12,06,34,13.20
2009,06,12,06,35,13.20
2009,06,12,06,36,13.20
2009,06,12,06,37,13.20
2009,06,12,06,38,13.20
2009,06,12,06,39,13.30
2009,06,12,06,40,13.30
2009,06,12,06,41,13.30
2009,06,12,06,42,13.30
2009,06,12,06,43,13.30
2009,06,12,06,44,13.40
2009,06,12,06,45,13.40
2009,06,12,06,46,13.40
2009,06,12,06,47,13.40
2009,06,12,06,48,13.40
2009,06,12,06,49,13.50
2009,06,12,06,50,13.50
2009,06,12,06,51,13.50
2009,06,12,06,52,13.50
2009,06,12,06,53,13.50
2009,06,12,06,54,13.50
2009,06,12,06,55,13.50
2009,06,12,06,56,13.50
2009,06,12,06,57,13.50
2009,06,12,06,58,13.50
2009,06,12,06,59,13.50
2009,06,12,07,00,13.50
2009,06,12,07,01,13.50
2009,06,12,07,02,13.50
2009,06,12,07,03,13.60
2009,06,12,07,04,13.60
2009,06,12,07,05,13.70
2009,06,12,07,06,13.70
2009,06,12,07,07,13.70
2009,06,12,07,08,13.80
2009,06,12,07,09,13.80
2009,06,12,07,10,13.80
2009,06,12,07,11,13.80
2009,06,12,07,12,13.80
2009,06,12,07,13,13.90
2009,06,12,07,14,14.00
2009,06,12,07,15,14.00
2009,06,12,07,16,14.10
2009,06,12,07,17,14.10
2009,06,12,07,18,14.10
2009,06,12,07,19,14.10
2009,06,12,07,20,14.10
2009,06,12,07,21,14.20
2009,06,12,07,22,14.20
2009,06,12,07,23,14.20
2009,06,12,07,24,14.30
2009,06,12,07,25,14.30
2009,06,12,07,26,14.40
2009,06,12,07,27,14.40
2009,06,12,07,28,14.40
2009,06,12,07,29,14.40
2009,06,12,07,30,14.40
2009,06,12,07,31,14.40
2009,06,12,07,32,14.40
2009,06,12,07,33,14.40
2009,06,12,07,34,14.40
2009,06,12,07,35,14.40
2009,06,12,07,36,14.50
2009,06,12,07,37,14.50
2009,06,12,07,38,14.60
2009,06,12,07,39,14.60
2009,06,12,07,40,14.70
2009,06,12,07,41,14.80
2009,06,12,07,42,14.80
2009,06,12,07,43,14.80
2009,06,12,07,44,14.80
2009,06,12,07,45,14.90
2009,06,12,07,46,15.00
2009,06,12,07,47,15.00
2009,06,12,07,48,15.00
2009,06,12,07,49,15.00
2009,06,12,07,50,15.00
2009,06,12,07,51,15.00
2009,06,12,07,52,15.00
2009,06,12,07,53,14.90
2009,06,12,07,54,14.80
2009,06,12,07,55,14.80
2009,06,12,07,56,14.80
2009,06,12,07,57,14.70
2009,06,12,07,58,14.70
2009,06,12,07,59,14.70
2009,06,12,08,00,14.80
2009,06,12,08,01,14.80
2009,06,12,08,02,14.80
2009,06,12,08,03,14.90
2009,06,12,08,04,15.00
2009,06,12,08,05,15.00
2009,06,12,08,06,15.00
2009,06,12,08,07,15.00
2009,06,12,08,08,15.00
2009,06,12,08,09,15.00
2009,06,12,08,10,15.00
2009,06,12,08,11,15.10
2009,06,12,08,12,15.10
2009,06,12,08,13,15.10
2009,06,12,08,14,15.10
2009,06,12,08,15,15.10
2009,06,12,08,16,15.20
2009,06,12,08,17,15.20
2009,06,12,08,18,15.20
2009,06,12,08,19,15.20
2009,06,12,08,20,15.30
2009,06,12,08,21,15.30
2009,06,12,08,22,15.40
2009,06,12,08,23,15.40
2009,06,12,08,24,15.30
2009,06,12,08,25,15.30
2009,06,12,08,26,15.30
2009,06,12,08,27,15.30
2009,06,12,08,28,15.30
2009,06,12,08,29,15.30
2009,06,12,08,30,15.20
2009,06,12,08,31,15.20
2009,06,12,08,32,15.20
2009,06,12,08,33,15.20
2009,06,12,08,34,15.20
2009,06,12,08,35,15.20
2009,06,12,08,36,15.20
2009,06,12,08,37,15.30
2009,06,12,08,38,15.40
2009,06,12,08,39,15.50
2009,06,12,08,40,15.60
2009,06,12,08,41,15.60
2009,06,12,08,42,15.60
2009,06,12,08,43,15.70
2009,06,12,08,44,15.70
2009,06,12,08,45,15.80
2009,06,12,08,46,15.90
2009,06,12,08,47,15.90
2009,06,12,08,48,16.00
2009,06,12,08,49,16.10
2009,06,12,08,50,16.10
2009,06,12,08,51,16.20
2009,06,12,08,52,16.20
2009,06,12,08,53,16.30
2009,06,12,08,54,16.30
2009,06,12,08,55,16.30
2009,06,12,08,56,16.30
2009,06,12,08,57,16.20
2009,06,12,08,58,16.20
2009,06,12,08,59,16.20
2009,06,12,09,00,16.10
2009,06,12,09,01,16.10
2009,06,12,09,02,16.00
2009,06,12,09,03,16.00
2009,06,12,09,04,16.10
2009,06,12,09,05,16.20
2009,06,12,09,06,16.10
2009,06,12,09,07,16.00
2009,06,12,09,08,15.90
2009,06,12,09,09,15.90
2009,06,12,09,10,15.80
2009,06,12,09,11,15.80
2009,06,12,09,12,15.80
2009,06,12,09,13,15.70
2009,06,12,09,14,15.70
2009,06,12,09,15,15.60
2009,06,12,09,16,15.60
2009,06,12,09,17,15.60
2009,06,12,09,18,15.60
2009,06,12,09,19,15.50
2009,06,12,09,20,15.50
2009,06,12,09,21,15.50
2009,06,12,09,22,15.60
2009,06,12,09,23,15.70
2009,06,12,09,24,15.70
2009,06,12,09,25,15.70
2009,06,12,09,26,15.70
2009,06,12,09,27,15.70
2009,06,12,09,28,15.70
2009,06,12,09,29,15.70
2009,06,12,09,30,15.70
2009,06,12,09,31,15.70
2009,06,12,09,32,15.70
2009,06,12,09,33,15.80
2009,06,12,09,34,15.80
2009,06,12,09,35,15.80
2009,06,12,09,36,15.70
2009,06,12,09,37,15.70
2009,06,12,09,38,15.70
2009,06,12,09,39,15.70
2009,06,12,09,40,15.70
2009,06,12,09,41,15.70
2009,06,12,09,42,15.70
2009,06,12,09,43,15.70
2009,06,12,09,44,15.70
2009,06,12,09,45,15.80
2009,06,12,09,46,15.80
2009,06,12,09,47,15.80
2009,06,12,09,48,15.90
2009,06,12,09,49,15.90
2009,06,12,09,50,15.90
2009,06,12,09,51,16.00
2009,06,12,09,52,16.00
2009,06,12,09,53,16.10
2009,06,12,09,54,16.10
2009,06,12,09,55,16.20
2009,06,12,09,56,16.20
2009,06,12,09,57,16.20
2009,06,12,09,58,16.20
2009,06,12,09,59,16.30
2009,06,12,10,00,16.40
2009,06,12,10,01,16.40
2009,06,12,10,02,16.40
2009,06,12,10,03,16.40
2009,06,12,10,04,16.50
2009,06,12,10,05,16.60
2009,06,12,10,06,16.70
2009,06,12,10,07,16.70
2009,06,12,10,08,16.80
2009,06,12,10,09,16.80
2009,06,12,10,10,16.80
2009,06,12,10,11,16.80
2009,06,12,10,12,16.70
2009,06,12,10,13,16.70
2009,06,12,10,14,16.70
2009,06,12,10,15,16.70
2009,06,12,10,16,16.70
2009,06,12,10,17,16.70
2009,06,12,10,18,16.70
2009,06,12,10,19,16.70
2009,06,12,10,20,16.70
2009,06,12,10,21,16.70
2009,06,12,10,22,16.70
2009,06,12,10,23,16.80
2009,06,12,10,24,16.80
2009,06,12,10,25,16.90
2009,06,12,10,26,16.90
2009,06,12,10,27,16.90
2009,06,12,10,28,17.10
2009,06,12,10,29,17.20
2009,06,12,10,30,17.30
2009,06,12,10,31,17.40
2009,06,12,10,32,17.40
2009,06,12,10,33,17.50
2009,06,12,10,34,17.50
2009,06,12,10,35,17.60
2009,06,12,10,36,17.60
2009,06,12,10,37,17.80
2009,06,12,10,38,17.90
2009,06,12,10,39,18.00
2009,06,12,10,40,18.10
2009,06,12,10,41,18.10
2009,06,12,10,42,18.20
2009,06,12,10,43,18.20
2009,06,12,10,44,18.10
2009,06,12,10,45,18.20
2009,06,12,10,46,18.30
2009,06,12,10,47,18.30
2009,06,12,10,48,18.30
2009,06,12,10,49,18.30
2009,06,12,10,50,18.30
2009,06,12,10,51,18.30
2009,06,12,10,52,18.30
2009,06,12,10,53,18.20
2009,06,12,10,54,18.20
2009,06,12,10,55,18.10
2009,06,12,10,56,18.10
2009,06,12,10,57,18.20
2009,06,12,10,58,18.20
2009,06,12,10,59,18.20
2009,06,12,11,00,18.20
2009,06,12,11,01,18.20
2009,06,12,11,02,18.20
2009,06,12,11,03,18.20
2009,06,12,11,04,18.20
2009,06,12,11,05,18.10
2009,06,12,11,06,18.10
2009,06,12,11,07,18.10
2009,06,12,11,08,18.20
2009,06,12,11,09,18.30
2009,06,12,11,10,18.40
2009,06,12,11,11,18.50
2009,06,12,11,12,18.50
2009,06,12,11,13,18.60
2009,06,12,11,14,18.80
2009,06,12,11,15,18.90
2009,06,12,11,16,19.10
2009,06,12,11,17,19.10
2009,06,12,11,18,19.00
2009,06,12,11,19,19.00
2009,06,12,11,20,19.10
2009,06,12,11,21,19.10
2009,06,12,11,22,19.20
2009,06,12,11,23,19.20
2009,06,12,11,24,19.10
2009,06,12,11,25,19.00
2009,06,12,11,26,18.90
2009,06,12,11,27,18.80
2009,06,12,11,28,18.70
2009,06,12,11,29,18.70
2009,06,12,11,30,18.50
2009,06,12,11,31,18.40
2009,06,12,11,32,18.30
2009,06,12,11,33,18.20
2009,06,12,11,34,18.20
2009,06,12,11,35,18.20
2009,06,12,11,36,18.10
2009,06,12,11,37,18.20
2009,06,12,11,38,18.30
2009,06,12,11,39,18.30
2009,06,12,11,40,18.40
2009,06,12,11,41,18.40
2009,06,12,11,42,18.50
2009,06,12,11,43,18.60
2009,06,12,11,44,18.70
2009,06,12,11,45,18.70
2009,06,12,11,46,18.80
2009,06,12,11,47,18.80
2009,06,12,11,48,18.80
2009,06,12,11,49,18.90
2009,06,12,11,50,19.00
2009,06,12,11,51,19.10
2009,06,12,11,52,19.20
2009,06,12,11,53,19.20
2009,06,12,11,54,19.20
2009,06,12,11,55,19.20
2009,06,12,11,56,19.00
2009,06,12,11,57,18.80
2009,06,12,11,58,18.60
2009,06,12,11,59,18.50
2009,06,12,12,00,18.50
2009,06,12,12,01,18.60
2009,06,12,12,02,18.60
2009,06,12,12,03,18.70
2009,06,12,12,04,18.70
2009,06,12,12,05,18.60
2009,06,12,12,06,18.40
2009,06,12,12,07,18.30
2009,06,12,12,08,18.50
2009,06,12,12,09,18.60
2009,06,12,12,10,18.80
2009,06,12,12,11,18.90
2009,06,12,12,12,19.00
2009,06,12,12,13,19.00
2009,06,12,12,14,19.10
2009,06,12,12,15,19.00
2009,06,12,12,16,19.00
2009,06,12,12,17,19.10
2009,06,12,12,18,19.20
2009,06,12,12,19,19.20
2009,06,12,12,20,19.10
2009,06,12,12,21,19.00
2009,06,12,12,22,18.80
2009,06,12,12,23,18.60
2009,06,12,12,24,18.60
2009,06,12,12,25,18.60
2009,06,12,12,26,18.70
2009,06,12,12,27,18.70
2009,06,12,12,28,18.70
2009,06,12,12,29,18.70
2009,06,12,12,30,18.70
2009,06,12,12,31,18.70
2009,06,12,12,32,18.80
2009,06,12,12,33,18.90
2009,06,12,12,34,19.00
2009,06,12,12,35,19.00
2009,06,12,12,36,19.00
2009,06,12,12,37,19.00
2009,06,12,12,38,18.80
2009,06,12,12,39,18.70
2009,06,12,12,40,18.80
2009,06,12,12,41,18.80
2009,06,12,12,42,18.90
2009,06,12,12,43,19.00
2009,06,12,12,44,19.10
2009,06,12,12,45,19.10
2009,06,12,12,46,19.10
2009,06,12,12,47,19.10
2009,06,12,12,48,19.10
2009,06,12,12,49,19.20
2009,06,12,12,50,19.10
2009,06,12,12,51,19.20
2009,06,12,12,52,19.30
2009,06,12,12,53,19.40
2009,06,12,12,54,19.30
2009,06,12,12,55,19.30
2009,06,12,12,56,19.30
2009,06,12,12,57,19.20
2009,06,12,12,58,19.30
2009,06,12,12,59,19.40
2009,06,12,13,00,19.50
2009,06,12,13,01,19.60
2009,06,12,13,02,19.70
2009,06,12,13,03,19.70
2009,06,12,13,04,19.70
2009,06,12,13,05,19.70
2009,06,12,13,06,19.60
2009,06,12,13,07,19.50
2009,06,12,13,08,19.50
2009,06,12,13,09,19.60
2009,06,12,13,10,19.70
2009,06,12,13,11,19.60
2009,06,12,13,12,19.70
2009,06,12,13,13,19.80
2009,06,12,13,14,19.90
2009,06,12,13,15,19.90
2009,06,12,13,16,19.80
2009,06,12,13,17,19.60
2009,06,12,13,18,19.60
2009,06,12,13,19,19.60
2009,06,12,13,20,19.60
2009,06,12,13,21,19.60
2009,06,12,13,22,19.70
2009,06,12,13,23,19.70
2009,06,12,13,24,19.70
2009,06,12,13,25,19.60
2009,06,12,13,26,19.50
2009,06,12,13,27,19.40
2009,06,12,13,28,19.30
2009,06,12,13,29,19.30
2009,06,12,13,30,19.30
2009,06,12,13,31,19.30
2009,06,12,13,32,19.40
2009,06,12,13,33,19.40
2009,06,12,13,34,19.50
2009,06,12,13,35,19.60
2009,06,12,13,36,19.60
2009,06,12,13,37,19.60
2009,06,12,13,38,19.50
2009,06,12,13,39,19.50
2009,06,12,13,40,19.50
2009,06,12,13,41,19.60
2009,06,12,13,42,19.70
2009,06,12,13,43,19.70
2009,06,12,13,44,19.70
2009,06,12,13,45,19.70
2009,06,12,13,46,19.60
2009,06,12,13,47,19.50
2009,06,12,13,48,19.50
2009,06,12,13,49,19.40
2009,06,12,13,50,19.50
2009,06,12,13,51,19.50
2009,06,12,13,52,19.50
2009,06,12,13,53,19.50
2009,06,12,13,54,19.40
2009,06,12,13,55,19.30
2009,06,12,13,56,19.30
2009,06,12,13,57,19.30
2009,06,12,13,58,19.30
2009,06,12,13,59,19.40
2009,06,12,14,00,19.40
2009,06,12,14,01,19.40
2009,06,12,14,02,19.40
2009,06,12,14,03,19.50
2009,06,12,14,04,19.50
2009,06,12,14,05,19.40
2009,06,12,14,06,19.40
2009,06,12,14,07,19.50
2009,06,12,14,08,19.60
2009,06,12,14,09,19.70
2009,06,12,14,10,19.90
2009,06,12,14,11,20.00
2009,06,12,14,12,20.10
2009,06,12,14,13,20.20
2009,06,12,14,14,20.10
2009,06,12,14,15,20.10
2009,06,12,14,16,20.10
2009,06,12,14,17,20.10
2009,06,12,14,18,20.10
2009,06,12,14,19,20.20
2009,06,12,14,20,20.10
2009,06,12,14,21,20.00
2009,06,12,14,22,19.90
2009,06,12,14,23,19.90
2009,06,12,14,24,19.90
2009,06,12,14,25,19.90
2009,06,12,14,26,19.80
2009,06,12,14,27,19.80
2009,06,12,14,28,19.80
2009,06,12,14,29,19.70
2009,06,12,14,30,19.70
2009,06,12,14,31,19.60
2009,06,12,14,32,19.60
2009,06,12,14,33,19.60
2009,06,12,14,34,19.50
2009,06,12,14,35,19.40
2009,06,12,14,36,19.40
2009,06,12,14,37,19.30
2009,06,12,14,38,19.30
2009,06,12,14,39,19.40
2009,06,12,14,40,19.40
2009,06,12,14,41,19.30
2009,06,12,14,42,19.30
2009,06,12,14,43,19.30
2009,06,12,14,44,19.30
2009,06,12,14,45,19.30
2009,06,12,14,46,19.40
2009,06,12,14,47,19.40
2009,06,12,14,48,19.30
2009,06,12,14,49,19.30
2009,06,12,14,50,19.30
2009,06,12,14,51,19.40
2009,06,12,14,52,19.40
2009,06,12,14,53,19.50
2009,06,12,14,54,19.60
2009,06,12,14,55,19.60
2009,06,12,14,56,19.70
2009,06,12,14,57,19.80
2009,06,12,14,58,19.80
2009,06,12,14,59,19.70
2009,06,12,15,00,19.60
2009,06,12,15,01,19.40
2009,06,12,15,02,19.40
2009,06,12,15,03,19.60
2009,06,12,15,04,19.70
2009,06,12,15,05,19.80
2009,06,12,15,06,19.90
2009,06,12,15,07,20.00
2009,06,12,15,08,20.00
2009,06,12,15,09,20.00
2009,06,12,15,10,19.90
2009,06,12,15,11,19.90
2009,06,12,15,12,19.90
2009,06,12,15,13,19.80
2009,06,12,15,14,19.80
2009,06,12,15,15,19.80
2009,06,12,15,16,19.80
2009,06,12,15,17,19.90
2009,06,12,15,18,19.80
2009,06,12,15,19,19.90
2009,06,12,15,20,19.90
2009,06,12,15,21,19.70
2009,06,12,15,22,19.50
2009,06,12,15,23,19.40
2009,06,12,15,24,19.40
2009,06,12,15,25,19.30
2009,06,12,15,26,19.30
2009,06,12,15,27,19.20
2009,06,12,15,28,19.10
2009,06,12,15,29,19.00
2009,06,12,15,30,19.00
2009,06,12,15,31,18.80
2009,06,12,15,32,18.80
2009,06,12,15,33,18.80
2009,06,12,15,34,18.80
2009,06,12,15,35,18.80
2009,06,12,15,36,18.80
2009,06,12,15,37,18.80
2009,06,12,15,38,18.80
2009,06,12,15,39,18.80
2009,06,12,15,40,18.70
2009,06,12,15,41,18.70
2009,06,12,15,42,18.80
2009,06,12,15,43,18.80
2009,06,12,15,44,18.90
2009,06,12,15,45,18.90
2009,06,12,15,46,18.90
2009,06,12,15,47,18.90
2009,06,12,15,48,18.90
2009,06,12,15,49,19.00
2009,06,12,15,50,19.10
2009,06,12,15,51,19.20
2009,06,12,15,52,19.30
2009,06,12,15,53,19.30
2009,06,12,15,54,19.50
2009,06,12,15,55,19.60
2009,06,12,15,56,19.60
2009,06,12,15,57,19.70
2009,06,12,15,58,19.70
2009,06,12,15,59,19.80
2009,06,12,16,00,19.90
2009,06,12,16,01,19.90
2009,06,12,16,02,20.00
2009,06,12,16,03,20.20
2009,06,12,16,04,20.30
2009,06,12,16,05,20.30
2009,06,12,16,06,20.30
2009,06,12,16,07,20.20
2009,06,12,16,08,20.30
2009,06,12,16,09,20.10
2009,06,12,16,10,20.10
2009,06,12,16,11,20.10
2009,06,12,16,12,20.10
2009,06,12,16,13,20.10
2009,06,12,16,14,20.20
2009,06,12,16,15,20.20
2009,06,12,16,16,20.20
2009,06,12,16,17,20.10
2009,06,12,16,18,20.20
2009,06,12,16,19,20.20
2009,06,12,16,20,20.20
2009,06,12,16,21,20.20
2009,06,12,16,22,20.10
2009,06,12,16,23,20.00
2009,06,12,16,24,20.10
2009,06,12,16,25,20.00
2009,06,12,16,26,19.90
2009,06,12,16,27,19.90
2009,06,12,16,28,19.80
2009,06,12,16,29,19.70
2009,06,12,16,30,19.70
2009,06,12,16,31,19.60
2009,06,12,16,32,19.60
2009,06,12,16,33,19.60
2009,06,12,16,34,19.70
2009,06,12,16,35,19.80
2009,06,12,16,36,19.90
2009,06,12,16,37,19.90
2009,06,12,16,38,19.90
2009,06,12,16,39,19.90
2009,06,12,16,40,19.80
2009,06,12,16,41,19.80
2009,06,12,16,42,19.80
2009,06,12,16,43,19.80
2009,06,12,16,44,19.80
2009,06,12,16,45,19.80
2009,06,12,16,46,19.60
2009,06,12,16,47,19.50
2009,06,12,16,48,19.40
2009,06,12,16,49,19.40
2009,06,12,16,50,19.40
2009,06,12,16,51,19.40
2009,06,12,16,52,19.30
2009,06,12,16,53,19.30
2009,06,12,16,54,19.20
2009,06,12,16,55,19.30
2009,06,12,16,56,19.30
2009,06,12,16,57,19.30
2009,06,12,16,58,19.30
2009,06,12,16,59,19.20
2009,06,12,17,00,19.10
2009,06,12,17,01,19.10
2009,06,12,17,02,19.10
2009,06,12,17,03,19.10
2009,06,12,17,04,19.20
2009,06,12,17,05,19.10
2009,06,12,17,06,19.00
2009,06,12,17,07,19.00
2009,06,12,17,08,18.90
2009,06,12,17,09,18.90
2009,06,12,17,10,18.80
2009,06,12,17,11,18.80
2009,06,12,17,12,18.80
2009,06,12,17,13,18.80
2009,06,12,17,14,18.80
2009,06,12,17,15,18.70
2009,06,12,17,16,18.70
2009,06,12,17,17,18.70
2009,06,12,17,18,18.70
2009,06,12,17,19,18.80